Time,TemperatureF,DewpointF,PressureIn,WindDirection,WindDirectionDegrees,WindSpeedMPH,WindSpeedGustMPH,Humidity,HourlyPrecipIn,Conditions,Clouds,dailyrainin,SoftwareType,DateUTC
2013-03-29 00:00:00,47.2,33.2,30.22,NW,311,0.0,5.0,58,0.00,,---,0.00,VWS V14.01,2013-03-29 04:00:00,
2013-03-29 00:05:00,47.1,33.1,30.22,NW,311,0.0,1.0,58,0.00,,---,0.00,VWS V14.01,2013-03-29 04:05:00,
2013-03-29 00:10:00,46.9,32.9,30.22,NW,311,1.0,3.0,58,0.00,,---,0.00,VWS V14.01,2013-03-29 04:10:00,
2013-03-29 00:15:00,46.8,32.0,30.22,NW,311,0.0,4.0,56,0.00,,---,0.00,VWS V14.01,2013-03-29 04:15:00,
2013-03-29 00:20:00,46.6,31.8,30.23,NW,312,3.0,5.0,56,0.00,,---,0.00,VWS V14.01,2013-03-29 04:20:00,
2013-03-29 00:25:00,46.4,31.6,30.23,NW,312,3.0,4.0,56,0.00,,---,0.00,VWS V14.01,2013-03-29 04:25:00,
2013-03-29 00:30:00,46.3,31.5,30.23,NNW,333,0.0,5.0,56,0.00,,---,0.00,VWS V14.01,2013-03-29 04:30:00,
2013-03-29 00:35:00,45.9,31.5,30.23,NNW,333,3.0,5.0,57,0.00,,---,0.00,VWS V14.01,2013-03-29 04:35:00,
2013-03-29 00:40:00,45.5,32.0,30.23,NNW,340,0.0,4.0,59,0.00,,---,0.00,VWS V14.01,2013-03-29 04:40:00,
2013-03-29 00:45:00,45.2,32.2,30.23,NNW,336,0.0,3.0,60,0.00,,---,0.00,VWS V14.01,2013-03-29 04:45:00,
2013-03-29 00:50:00,45.0,32.0,30.23,NNW,348,0.0,5.0,60,0.00,,---,0.00,VWS V14.01,2013-03-29 04:50:00,
2013-03-29 00:55:00,45.0,31.5,30.24,North,355,0.0,4.0,59,0.00,,---,0.00,VWS V14.01,2013-03-29 04:55:00,
2013-03-29 01:00:00,45.1,31.2,30.24,North,355,2.0,6.0,58,0.00,,---,0.00,VWS V14.01,2013-03-29 05:00:00,
2013-03-29 01:05:00,45.0,30.7,30.24,North,350,3.0,7.0,57,0.00,,---,0.00,VWS V14.01,2013-03-29 05:05:00,
2013-03-29 01:10:00,44.9,31.0,30.24,NNW,344,0.0,4.0,58,0.00,,---,0.00,VWS V14.01,2013-03-29 05:10:00,
2013-03-29 01:15:00,44.5,31.1,30.24,NNW,336,0.0,4.0,59,0.00,,---,0.00,VWS V14.01,2013-03-29 05:15:00,
2013-03-29 01:20:00,44.3,30.9,30.24,NNW,340,0.0,5.0,59,0.00,,---,0.00,VWS V14.01,2013-03-29 05:20:00,
2013-03-29 01:25:00,44.1,31.5,30.25,NNW,331,1.0,5.0,61,0.00,,---,0.00,VWS V14.01,2013-03-29 05:25:00,
2013-03-29 01:30:00,43.8,31.2,30.25,NNW,342,3.0,5.0,61,0.00,,---,0.00,VWS V14.01,2013-03-29 05:30:00,
2013-03-29 01:35:00,43.7,31.1,30.25,NNW,342,0.0,3.0,61,0.00,,---,0.00,VWS V14.01,2013-03-29 05:35:00,
2013-03-29 01:40:00,43.6,31.0,30.25,NNW,344,4.0,5.0,61,0.00,,---,0.00,VWS V14.01,2013-03-29 05:40:00,
2013-03-29 01:45:00,43.6,30.6,30.25,NNW,343,5.0,6.0,60,0.00,,---,0.00,VWS V14.01,2013-03-29 05:45:00,
2013-03-29 01:50:00,43.7,30.3,30.25,North,351,4.0,6.0,59,0.00,,---,0.00,VWS V14.01,2013-03-29 05:50:00,
2013-03-29 01:55:00,43.7,30.3,30.25,North,349,5.0,6.0,59,0.00,,---,0.00,VWS V14.01,2013-03-29 05:55:00,
2013-03-29 02:00:00,43.6,30.2,30.25,North,351,7.0,7.0,59,0.00,,---,0.00,VWS V14.01,2013-03-29 06:00:00,
2013-03-29 02:05:00,43.5,30.1,30.25,NNW,345,3.0,6.0,59,0.00,,---,0.00,VWS V14.01,2013-03-29 06:05:00,
2013-03-29 02:10:00,43.4,30.0,30.25,North,360,2.0,5.0,59,0.00,,---,0.00,VWS V14.01,2013-03-29 06:10:00,
2013-03-29 02:15:00,43.3,30.0,30.25,North,5,2.0,6.0,59,0.00,,---,0.00,VWS V14.01,2013-03-29 06:15:00,
2013-03-29 02:20:00,43.1,29.8,30.25,North,355,0.0,6.0,59,0.00,,---,0.00,VWS V14.01,2013-03-29 06:20:00,
2013-03-29 02:25:00,43.0,30.1,30.25,North,5,5.0,5.0,60,0.00,,---,0.00,VWS V14.01,2013-03-29 06:25:00,
2013-03-29 02:30:00,42.8,29.9,30.25,NNW,346,3.0,5.0,60,0.00,,---,0.00,VWS V14.01,2013-03-29 06:30:00,
2013-03-29 02:35:00,42.7,30.2,30.25,North,9,0.0,7.0,61,0.00,,---,0.00,VWS V14.01,2013-03-29 06:35:00,
2013-03-29 02:40:00,42.6,30.1,30.25,North,360,1.0,8.0,61,0.00,,---,0.00,VWS V14.01,2013-03-29 06:40:00,
2013-03-29 02:45:00,42.5,29.6,30.25,North,360,4.0,7.0,60,0.00,,---,0.00,VWS V14.01,2013-03-29 06:45:00,
2013-03-29 02:50:00,42.4,29.9,30.25,North,355,2.0,5.0,61,0.00,,---,0.00,VWS V14.01,2013-03-29 06:50:00,
2013-03-29 02:55:00,42.3,29.8,30.25,North,355,4.0,4.0,61,0.00,,---,0.00,VWS V14.01,2013-03-29 06:55:00,
2013-03-29 03:00:00,42.2,29.7,30.24,North,355,1.0,6.0,61,0.00,,---,0.00,VWS V14.01,2013-03-29 07:00:00,
2013-03-29 03:05:00,42.1,30.0,30.24,North,355,0.0,2.0,62,0.00,,---,0.00,VWS V14.01,2013-03-29 07:05:00,
2013-03-29 03:10:00,41.9,30.2,30.24,North,360,0.0,0.0,63,0.00,,---,0.00,VWS V14.01,2013-03-29 07:10:00,
2013-03-29 03:15:00,41.6,30.3,30.24,North,5,0.0,3.0,64,0.00,,---,0.00,VWS V14.01,2013-03-29 07:15:00,
2013-03-29 03:20:00,41.4,30.5,30.24,North,9,2.0,5.0,65,0.00,,---,0.00,VWS V14.01,2013-03-29 07:20:00,
2013-03-29 03:25:00,41.2,30.0,30.24,North,5,2.0,5.0,64,0.00,,---,0.00,VWS V14.01,2013-03-29 07:25:00,
2013-03-29 03:30:00,41.0,30.1,30.24,NNE,18,0.0,5.0,65,0.00,,---,0.00,VWS V14.01,2013-03-29 07:30:00,
2013-03-29 03:35:00,40.9,30.1,30.24,North,360,2.0,2.0,65,0.00,,---,0.00,VWS V14.01,2013-03-29 07:35:00,
2013-03-29 03:40:00,40.8,29.6,30.24,NNW,348,3.0,6.0,64,0.00,,---,0.00,VWS V14.01,2013-03-29 07:40:00,
2013-03-29 03:45:00,40.7,29.9,30.24,North,355,2.0,6.0,65,0.00,,---,0.00,VWS V14.01,2013-03-29 07:45:00,
2013-03-29 03:50:00,40.7,30.2,30.24,North,349,0.0,4.0,66,0.00,,---,0.00,VWS V14.01,2013-03-29 07:50:00,
2013-03-29 03:55:00,40.6,30.1,30.24,North,351,0.0,2.0,66,0.00,,---,0.00,VWS V14.01,2013-03-29 07:55:00,
2013-03-29 04:00:00,40.5,30.0,30.24,North,355,0.0,4.0,66,0.00,,---,0.00,VWS V14.01,2013-03-29 08:00:00,
2013-03-29 04:05:00,40.4,30.0,30.24,North,355,2.0,4.0,66,0.00,,---,0.00,VWS V14.01,2013-03-29 08:05:00,
2013-03-29 04:10:00,40.4,30.0,30.24,North,355,0.0,0.0,66,0.00,,---,0.00,VWS V14.01,2013-03-29 08:10:00,
2013-03-29 04:15:00,40.3,30.2,30.24,North,355,0.0,0.0,67,0.00,,---,0.00,VWS V14.01,2013-03-29 08:15:00,
2013-03-29 04:20:00,40.2,30.1,30.24,North,355,0.0,0.0,67,0.00,,---,0.00,VWS V14.01,2013-03-29 08:20:00,
2013-03-29 04:25:00,40.1,30.0,30.24,North,351,0.0,3.0,67,0.00,,---,0.00,VWS V14.01,2013-03-29 08:25:00,
2013-03-29 04:30:00,40.0,29.9,30.24,North,351,0.0,0.0,67,0.00,,---,0.00,VWS V14.01,2013-03-29 08:30:00,
2013-03-29 04:35:00,39.8,30.1,30.24,North,355,0.0,3.0,68,0.00,,---,0.00,VWS V14.01,2013-03-29 08:35:00,
2013-03-29 04:40:00,39.8,30.1,30.24,North,355,0.0,3.0,68,0.00,,---,0.00,VWS V14.01,2013-03-29 08:40:00,
2013-03-29 04:45:00,39.7,30.0,30.24,North,350,0.0,2.0,68,0.00,,---,0.00,VWS V14.01,2013-03-29 08:45:00,
2013-03-29 04:50:00,39.6,29.9,30.24,North,355,0.0,0.0,68,0.00,,---,0.00,VWS V14.01,2013-03-29 08:50:00,
2013-03-29 04:55:00,39.6,29.9,30.24,North,5,0.0,4.0,68,0.00,,---,0.00,VWS V14.01,2013-03-29 08:55:00,
2013-03-29 05:00:00,39.6,29.9,30.24,North,355,0.0,4.0,68,0.00,,---,0.00,VWS V14.01,2013-03-29 09:00:00,
2013-03-29 05:05:00,39.6,29.6,30.24,North,9,0.0,3.0,67,0.00,,---,0.00,VWS V14.01,2013-03-29 09:05:00,
2013-03-29 05:10:00,39.6,29.9,30.24,North,355,4.0,5.0,68,0.00,,---,0.00,VWS V14.01,2013-03-29 09:10:00,
2013-03-29 05:15:00,39.6,29.9,30.24,NNE,14,0.0,4.0,68,0.00,,---,0.00,VWS V14.01,2013-03-29 09:15:00,
2013-03-29 05:20:00,39.5,29.8,30.24,North,5,2.0,6.0,68,0.00,,---,0.00,VWS V14.01,2013-03-29 09:20:00,
2013-03-29 05:25:00,39.5,29.8,30.24,North,349,5.0,6.0,68,0.00,,---,0.00,VWS V14.01,2013-03-29 09:25:00,
2013-03-29 05:30:00,39.4,29.7,30.24,North,355,5.0,5.0,68,0.00,,---,0.00,VWS V14.01,2013-03-29 09:30:00,
2013-03-29 05:35:00,39.3,29.3,30.24,North,5,2.0,6.0,67,0.00,,---,0.00,VWS V14.01,2013-03-29 09:35:00,
2013-03-29 05:39:00,39.1,29.1,30.25,North,360,3.0,6.0,67,0.00,,---,0.00,VWS V14.01,2013-03-29 09:39:00,
2013-03-29 05:45:00,39.1,29.5,30.25,North,351,4.0,6.0,68,0.00,,---,0.00,VWS V14.01,2013-03-29 09:45:00,
2013-03-29 05:50:00,39.1,29.5,30.25,NNE,14,3.0,6.0,68,0.00,,---,0.00,VWS V14.01,2013-03-29 09:50:00,
2013-03-29 05:55:00,39.1,29.5,30.25,North,351,0.0,6.0,68,0.00,,---,0.00,VWS V14.01,2013-03-29 09:55:00,
2013-03-29 06:00:00,39.0,29.4,30.25,North,355,2.0,6.0,68,0.00,,---,0.00,VWS V14.01,2013-03-29 10:00:00,
2013-03-29 06:05:00,38.9,29.2,30.25,North,5,2.0,4.0,68,0.00,,---,0.00,VWS V14.01,2013-03-29 10:05:00,
2013-03-29 06:10:00,38.9,29.2,30.25,North,355,0.0,4.0,68,0.00,,---,0.00,VWS V14.01,2013-03-29 10:10:00,
2013-03-29 06:15:00,38.8,29.5,30.26,North,355,0.0,4.0,69,0.00,,---,0.00,VWS V14.01,2013-03-29 10:15:00,
2013-03-29 06:20:00,38.8,29.5,30.26,NNW,346,2.0,3.0,69,0.00,,---,0.00,VWS V14.01,2013-03-29 10:20:00,
2013-03-29 06:25:00,38.7,29.4,30.26,North,5,0.0,4.0,69,0.00,,---,0.00,VWS V14.01,2013-03-29 10:25:00,
2013-03-29 06:29:00,38.6,29.3,30.26,NNW,348,3.0,5.0,69,0.00,,---,0.00,VWS V14.01,2013-03-29 10:29:00,
2013-03-29 06:34:00,38.6,29.3,30.26,North,355,4.0,4.0,69,0.00,,---,0.00,VWS V14.01,2013-03-29 10:34:00,
2013-03-29 06:39:00,38.5,29.2,30.26,North,350,3.0,3.0,69,0.00,,---,0.00,VWS V14.01,2013-03-29 10:39:00,
2013-03-29 06:44:00,38.5,29.2,30.26,North,355,0.0,0.0,69,0.00,,---,0.00,VWS V14.01,2013-03-29 10:44:00,
2013-03-29 06:49:00,38.4,29.1,30.26,North,360,0.0,0.0,69,0.00,,---,0.00,VWS V14.01,2013-03-29 10:49:00,
2013-03-29 06:54:00,38.4,29.1,30.27,North,360,0.0,0.0,69,0.00,,---,0.00,VWS V14.01,2013-03-29 10:54:00,
2013-03-29 06:59:00,38.4,29.1,30.27,North,360,0.0,0.0,69,0.00,,---,0.00,VWS V14.01,2013-03-29 10:59:00,
2013-03-29 07:04:00,38.3,29.0,30.27,North,355,0.0,4.0,69,0.00,,---,0.00,VWS V14.01,2013-03-29 11:04:00,
2013-03-29 07:09:00,38.3,29.4,30.27,North,355,2.0,3.0,70,0.00,,---,0.00,VWS V14.01,2013-03-29 11:09:00,
2013-03-29 07:14:00,38.4,29.5,30.27,North,351,2.0,5.0,70,0.00,,---,0.00,VWS V14.01,2013-03-29 11:14:00,
2013-03-29 07:19:00,38.4,29.1,30.27,North,351,2.0,2.0,69,0.00,,---,0.00,VWS V14.01,2013-03-29 11:19:00,
2013-03-29 07:24:00,38.4,29.5,30.27,NNW,344,3.0,3.0,70,0.00,,---,0.00,VWS V14.01,2013-03-29 11:24:00,
2013-03-29 07:29:00,38.5,29.6,30.28,NNW,330,0.0,6.0,70,0.00,,---,0.00,VWS V14.01,2013-03-29 11:29:00,
2013-03-29 07:34:00,38.6,29.3,30.28,NNW,337,0.0,4.0,69,0.00,,---,0.00,VWS V14.01,2013-03-29 11:34:00,
2013-03-29 07:39:00,38.8,29.5,30.28,NNW,344,2.0,5.0,69,0.00,,---,0.00,VWS V14.01,2013-03-29 11:39:00,
2013-03-29 07:44:00,39.1,29.5,30.28,North,350,4.0,5.0,68,0.00,,---,0.00,VWS V14.01,2013-03-29 11:44:00,
2013-03-29 07:49:00,39.5,29.1,30.28,NNW,331,5.0,7.0,66,0.00,,---,0.00,VWS V14.01,2013-03-29 11:49:00,
2013-03-29 07:54:00,39.9,29.5,30.29,NNW,342,3.0,5.0,66,0.00,,---,0.00,VWS V14.01,2013-03-29 11:54:00,
2013-03-29 07:59:00,40.2,29.4,30.29,NNW,343,1.0,6.0,65,0.00,,---,0.00,VWS V14.01,2013-03-29 11:59:00,
2013-03-29 08:04:00,40.5,30.0,30.28,North,355,2.0,3.0,66,0.00,,---,0.00,VWS V14.01,2013-03-29 12:04:00,
2013-03-29 08:09:00,40.7,29.9,30.28,North,350,0.0,4.0,65,0.00,,---,0.00,VWS V14.01,2013-03-29 12:09:00,
2013-03-29 08:14:00,41.0,29.8,30.29,NNW,342,2.0,4.0,64,0.00,,---,0.00,VWS V14.01,2013-03-29 12:14:00,
2013-03-29 08:19:00,41.4,29.8,30.29,NNW,340,1.0,3.0,63,0.00,,---,0.00,VWS V14.01,2013-03-29 12:19:00,
2013-03-29 08:24:00,41.7,29.7,30.29,North,355,5.0,7.0,62,0.00,,---,0.00,VWS V14.01,2013-03-29 12:24:00,
2013-03-29 08:29:00,41.9,29.9,30.29,North,355,4.0,4.0,62,0.00,,---,0.00,VWS V14.01,2013-03-29 12:29:00,
2013-03-29 08:34:00,42.2,29.7,30.29,North,355,4.0,8.0,61,0.00,,---,0.00,VWS V14.01,2013-03-29 12:34:00,
2013-03-29 08:39:00,42.6,29.7,30.29,North,360,4.0,5.0,60,0.00,,---,0.00,VWS V14.01,2013-03-29 12:39:00,
2013-03-29 08:44:00,43.1,30.2,30.29,North,355,2.0,5.0,60,0.00,,---,0.00,VWS V14.01,2013-03-29 12:44:00,
2013-03-29 08:49:00,43.6,29.8,30.29,NNE,15,4.0,5.0,58,0.00,,---,0.00,VWS V14.01,2013-03-29 12:49:00,
2013-03-29 08:54:00,44.0,29.8,30.29,NNE,19,4.0,6.0,57,0.00,,---,0.00,VWS V14.01,2013-03-29 12:54:00,
2013-03-29 08:59:00,44.4,30.1,30.29,NNW,347,3.0,5.0,57,0.00,,---,0.00,VWS V14.01,2013-03-29 12:59:00,
2013-03-29 09:04:00,44.7,30.0,30.30,North,5,6.0,7.0,56,0.00,,---,0.00,VWS V14.01,2013-03-29 13:04:00,
2013-03-29 09:09:00,45.1,29.9,30.30,NNE,14,4.0,8.0,55,0.00,,---,0.00,VWS V14.01,2013-03-29 13:09:00,
2013-03-29 09:14:00,45.6,30.4,30.30,North,11,2.0,4.0,55,0.00,,---,0.00,VWS V14.01,2013-03-29 13:14:00,
2013-03-29 09:19:00,46.1,30.4,30.29,NE,34,3.0,4.0,54,0.00,,---,0.00,VWS V14.01,2013-03-29 13:19:00,
2013-03-29 09:24:00,46.7,30.0,30.29,NNE,28,0.0,5.0,52,0.00,,---,0.00,VWS V14.01,2013-03-29 13:24:00,
2013-03-29 09:29:00,47.3,30.1,30.30,North,5,1.0,4.0,51,0.00,,---,0.00,VWS V14.01,2013-03-29 13:29:00,
2013-03-29 09:34:00,47.9,29.7,30.30,NNE,12,5.0,5.0,49,0.00,,---,0.00,VWS V14.01,2013-03-29 13:34:00,
2013-03-29 09:39:00,48.2,29.5,30.30,NNE,32,0.0,6.0,48,0.00,,---,0.00,VWS V14.01,2013-03-29 13:39:00,
2013-03-29 09:44:00,48.6,29.3,30.29,NNW,348,4.0,4.0,47,0.00,,---,0.00,VWS V14.01,2013-03-29 13:44:00,
2013-03-29 09:49:00,48.8,29.0,30.29,NNE,22,0.0,3.0,46,0.00,,---,0.00,VWS V14.01,2013-03-29 13:49:00,
2013-03-29 09:54:00,49.4,29.5,30.29,North,360,2.0,2.0,46,0.00,,---,0.00,VWS V14.01,2013-03-29 13:54:00,
2013-03-29 09:59:00,49.7,28.1,30.29,North,360,7.0,7.0,43,0.00,,---,0.00,VWS V14.01,2013-03-29 13:59:00,
2013-03-29 10:04:00,49.6,28.0,30.29,North,355,6.0,6.0,43,0.00,,---,0.00,VWS V14.01,2013-03-29 14:04:00,
2013-03-29 10:09:00,49.7,27.6,30.29,NNE,24,4.0,7.0,42,0.00,,---,0.00,VWS V14.01,2013-03-29 14:09:00,
2013-03-29 10:14:00,50.0,27.2,30.29,NW,323,3.0,8.0,41,0.00,,---,0.00,VWS V14.01,2013-03-29 14:14:00,
2013-03-29 10:19:00,50.2,28.0,30.29,North,5,0.0,4.0,42,0.00,,---,0.00,VWS V14.01,2013-03-29 14:19:00,
2013-03-29 10:24:00,50.8,29.1,30.29,NNE,19,3.0,10.0,43,0.00,,---,0.00,VWS V14.01,2013-03-29 14:24:00,
2013-03-29 10:29:00,50.8,28.0,30.29,NNE,30,2.0,7.0,41,0.00,,---,0.00,VWS V14.01,2013-03-29 14:29:00,
2013-03-29 10:34:00,50.8,28.0,30.29,North,351,4.0,10.0,41,0.00,,---,0.00,VWS V14.01,2013-03-29 14:34:00,
2013-03-29 10:39:00,50.4,27.6,30.29,North,5,0.0,6.0,41,0.00,,---,0.00,VWS V14.01,2013-03-29 14:39:00,
2013-03-29 10:44:00,50.7,27.9,30.29,North,351,5.0,9.0,41,0.00,,---,0.00,VWS V14.01,2013-03-29 14:44:00,
2013-03-29 10:49:00,51.0,28.1,30.29,NW,326,8.0,11.0,41,0.00,,---,0.00,VWS V14.01,2013-03-29 14:49:00,
2013-03-29 10:54:00,50.8,28.0,30.29,NNW,335,8.0,10.0,41,0.00,,---,0.00,VWS V14.01,2013-03-29 14:54:00,
2013-03-29 10:59:00,50.8,28.0,30.29,NNW,345,0.0,9.0,41,0.00,,---,0.00,VWS V14.01,2013-03-29 14:59:00,
2013-03-29 11:04:00,51.3,29.0,30.29,NW,311,7.0,8.0,42,0.00,,---,0.00,VWS V14.01,2013-03-29 15:04:00,
2013-03-29 11:09:00,51.5,28.6,30.29,WNW,295,7.0,8.0,41,0.00,,---,0.00,VWS V14.01,2013-03-29 15:09:00,
2013-03-29 11:14:00,51.5,27.4,30.28,NE,53,6.0,9.0,39,0.00,,---,0.00,VWS V14.01,2013-03-29 15:14:00,
2013-03-29 11:19:00,51.8,28.3,30.28,WNW,294,8.0,15.0,40,0.00,,---,0.00,VWS V14.01,2013-03-29 15:19:00,
2013-03-29 11:24:00,51.9,27.7,30.28,North,360,8.0,11.0,39,0.00,,---,0.00,VWS V14.01,2013-03-29 15:24:00,
2013-03-29 11:29:00,51.7,27.6,30.28,North,355,9.0,9.0,39,0.00,,---,0.00,VWS V14.01,2013-03-29 15:29:00,
2013-03-29 11:34:00,52.2,28.6,30.27,WNW,302,7.0,8.0,40,0.00,,---,0.00,VWS V14.01,2013-03-29 15:34:00,
2013-03-29 11:39:00,52.7,28.5,30.27,North,5,7.0,7.0,39,0.00,,---,0.00,VWS V14.01,2013-03-29 15:39:00,
2013-03-29 11:44:00,52.8,27.9,30.27,NNW,347,9.0,13.0,38,0.00,,---,0.00,VWS V14.01,2013-03-29 15:44:00,
2013-03-29 11:49:00,52.9,27.4,30.27,NNW,346,7.0,8.0,37,0.00,,---,0.00,VWS V14.01,2013-03-29 15:49:00,
2013-03-29 11:54:00,53.3,27.7,30.27,NNE,19,6.0,8.0,37,0.00,,---,0.00,VWS V14.01,2013-03-29 15:54:00,
2013-03-29 11:59:00,53.4,27.1,30.27,North,355,5.0,11.0,36,0.00,,---,0.00,VWS V14.01,2013-03-29 15:59:00,
2013-03-29 12:04:00,53.1,26.9,30.27,North,351,6.0,12.0,36,0.00,,---,0.00,VWS V14.01,2013-03-29 16:04:00,
2013-03-29 12:09:00,52.9,28.0,30.26,NW,313,6.0,10.0,38,0.00,,---,0.00,VWS V14.01,2013-03-29 16:09:00,
2013-03-29 12:14:00,53.5,27.9,30.26,West,271,9.0,9.0,37,0.00,,---,0.00,VWS V14.01,2013-03-29 16:14:00,
2013-03-29 12:19:00,53.4,27.1,30.26,NW,318,6.0,8.0,36,0.00,,---,0.00,VWS V14.01,2013-03-29 16:19:00,
2013-03-29 12:24:00,53.8,27.5,30.26,NW,310,7.0,10.0,36,0.00,,---,0.00,VWS V14.01,2013-03-29 16:24:00,
2013-03-29 12:29:00,53.7,27.4,30.26,West,279,8.0,8.0,36,0.00,,---,0.00,VWS V14.01,2013-03-29 16:29:00,
2013-03-29 12:34:00,54.5,28.1,30.25,WNW,297,7.0,13.0,36,0.00,,---,0.00,VWS V14.01,2013-03-29 16:34:00,
2013-03-29 12:39:00,54.6,27.5,30.25,NW,326,7.0,15.0,35,0.00,,---,0.00,VWS V14.01,2013-03-29 16:39:00,
2013-03-29 12:44:00,54.4,27.3,30.25,WNW,284,7.0,11.0,35,0.00,,---,0.00,VWS V14.01,2013-03-29 16:44:00,
2013-03-29 12:49:00,54.7,27.6,30.25,WNW,284,7.0,15.0,35,0.00,,---,0.00,VWS V14.01,2013-03-29 16:49:00,
2013-03-29 12:54:00,54.7,26.2,30.25,NW,315,8.0,12.0,33,0.00,,---,0.00,VWS V14.01,2013-03-29 16:54:00,
2013-03-29 12:59:00,54.5,27.4,30.25,WNW,296,12.0,18.0,35,0.00,,---,0.00,VWS V14.01,2013-03-29 16:59:00,
2013-03-29 13:04:00,54.2,27.2,30.25,NW,313,10.0,15.0,35,0.00,,---,0.00,VWS V14.01,2013-03-29 17:04:00,
2013-03-29 13:09:00,54.3,27.2,30.24,WNW,282,11.0,11.0,35,0.00,,---,0.00,VWS V14.01,2013-03-29 17:09:00,
2013-03-29 13:14:00,54.7,27.6,30.24,NNW,346,4.0,8.0,35,0.00,,---,0.00,VWS V14.01,2013-03-29 17:14:00,
2013-03-29 13:19:00,54.8,27.0,30.24,NNW,338,5.0,8.0,34,0.00,,---,0.00,VWS V14.01,2013-03-29 17:19:00,
2013-03-29 13:24:00,55.3,28.1,30.24,WNW,290,13.0,13.0,35,0.00,,---,0.00,VWS V14.01,2013-03-29 17:24:00,
2013-03-29 13:29:00,55.3,27.4,30.24,NW,310,6.0,11.0,34,0.00,,---,0.00,VWS V14.01,2013-03-29 17:29:00,
2013-03-29 13:34:00,55.1,31.2,30.23,West,268,9.0,13.0,40,0.00,,---,0.00,VWS V14.01,2013-03-29 17:34:00,
2013-03-29 13:39:00,53.6,34.9,30.23,WSW,242,11.0,12.0,49,0.00,,---,0.00,VWS V14.01,2013-03-29 17:39:00,
2013-03-29 13:44:00,51.2,35.1,30.23,SW,228,14.0,17.0,54,0.00,,---,0.00,VWS V14.01,2013-03-29 17:44:00,
2013-03-29 13:49:00,50.5,34.0,30.23,SW,229,14.0,17.0,53,0.00,,---,0.00,VWS V14.01,2013-03-29 17:49:00,
2013-03-29 13:54:00,50.6,34.6,30.22,SW,227,10.0,16.0,54,0.00,,---,0.00,VWS V14.01,2013-03-29 17:54:00,
2013-03-29 13:59:00,50.9,34.9,30.22,SW,234,10.0,15.0,54,0.00,,---,0.00,VWS V14.01,2013-03-29 17:59:00,
2013-03-29 14:04:00,50.9,34.9,30.22,SW,232,10.0,11.0,54,0.00,,---,0.00,VWS V14.01,2013-03-29 18:04:00,
2013-03-29 14:09:00,50.9,33.9,30.22,WSW,240,9.0,11.0,52,0.00,,---,0.00,VWS V14.01,2013-03-29 18:09:00,
2013-03-29 14:14:00,51.0,34.0,30.21,WSW,241,10.0,10.0,52,0.00,,---,0.00,VWS V14.01,2013-03-29 18:14:00,
2013-03-29 14:19:00,51.0,35.9,30.21,SW,229,13.0,14.0,56,0.00,,---,0.00,VWS V14.01,2013-03-29 18:19:00,
2013-03-29 14:24:00,50.9,33.9,30.21,SW,232,10.0,12.0,52,0.00,,---,0.00,VWS V14.01,2013-03-29 18:24:00,
2013-03-29 14:29:00,51.0,37.2,30.21,SW,230,13.0,13.0,59,0.00,,---,0.00,VWS V14.01,2013-03-29 18:29:00,
2013-03-29 14:34:00,50.6,35.5,30.21,SW,225,16.0,16.0,56,0.00,,---,0.00,VWS V14.01,2013-03-29 18:34:00,
2013-03-29 14:39:00,50.4,33.9,30.21,SW,229,11.0,18.0,53,0.00,,---,0.00,VWS V14.01,2013-03-29 18:39:00,
2013-03-29 14:44:00,50.3,36.1,30.21,SW,231,18.0,18.0,58,0.00,,---,0.00,VWS V14.01,2013-03-29 18:44:00,
2013-03-29 14:49:00,50.5,36.3,30.21,SW,228,16.0,19.0,58,0.00,,---,0.00,VWS V14.01,2013-03-29 18:49:00,
2013-03-29 14:54:00,50.5,37.2,30.20,SW,228,17.0,17.0,60,0.00,,---,0.00,VWS V14.01,2013-03-29 18:54:00,
2013-03-29 14:59:00,50.4,35.8,30.20,SW,228,20.0,20.0,57,0.00,,---,0.00,VWS V14.01,2013-03-29 18:59:00,
2013-03-29 15:04:00,50.4,35.3,30.21,SW,232,11.0,17.0,56,0.00,,---,0.00,VWS V14.01,2013-03-29 19:04:00,
2013-03-29 15:09:00,50.5,35.8,30.20,SW,223,13.0,19.0,57,0.00,,---,0.00,VWS V14.01,2013-03-29 19:09:00,
2013-03-29 15:14:00,50.6,36.4,30.20,SW,228,14.0,20.0,58,0.00,,---,0.00,VWS V14.01,2013-03-29 19:14:00,
2013-03-29 15:19:00,50.6,36.8,30.20,SW,234,16.0,20.0,59,0.00,,---,0.00,VWS V14.01,2013-03-29 19:19:00,
2013-03-29 15:24:00,50.6,37.7,30.19,SW,232,17.0,20.0,61,0.00,,---,0.00,VWS V14.01,2013-03-29 19:24:00,
2013-03-29 15:29:00,50.6,36.8,30.20,SW,231,17.0,18.0,59,0.00,,---,0.00,VWS V14.01,2013-03-29 19:29:00,
2013-03-29 15:34:00,50.5,35.4,30.20,SW,228,18.0,18.0,56,0.00,,---,0.00,VWS V14.01,2013-03-29 19:34:00,
2013-03-29 15:39:00,50.6,37.7,30.19,SW,229,18.0,18.0,61,0.00,,---,0.00,VWS V14.01,2013-03-29 19:39:00,
2013-03-29 15:44:00,50.6,36.8,30.19,SW,236,14.0,21.0,59,0.00,,---,0.00,VWS V14.01,2013-03-29 19:44:00,
2013-03-29 15:49:00,50.7,36.9,30.19,SW,227,16.0,20.0,59,0.00,,---,0.00,VWS V14.01,2013-03-29 19:49:00,
2013-03-29 15:54:00,50.8,37.4,30.19,SW,224,20.0,20.0,60,0.00,,---,0.00,VWS V14.01,2013-03-29 19:54:00,
2013-03-29 15:59:00,50.9,38.0,30.19,SW,229,13.0,16.0,61,0.00,,---,0.00,VWS V14.01,2013-03-29 19:59:00,
2013-03-29 16:04:00,50.9,37.5,30.19,WSW,240,14.0,18.0,60,0.00,,---,0.00,VWS V14.01,2013-03-29 20:04:00,
2013-03-29 16:09:00,51.0,36.8,30.19,SW,225,17.0,19.0,58,0.00,,---,0.00,VWS V14.01,2013-03-29 20:09:00,
2013-03-29 16:14:00,51.0,38.0,30.19,WSW,238,13.0,16.0,61,0.00,,---,0.00,VWS V14.01,2013-03-29 20:14:00,
2013-03-29 16:19:00,51.0,37.6,30.19,SW,229,13.0,17.0,60,0.00,,---,0.00,VWS V14.01,2013-03-29 20:19:00,
2013-03-29 16:24:00,51.1,37.3,30.19,SW,233,11.0,16.0,59,0.00,,---,0.00,VWS V14.01,2013-03-29 20:24:00,
2013-03-29 16:29:00,51.2,38.6,30.18,SW,223,16.0,16.0,62,0.00,,---,0.00,VWS V14.01,2013-03-29 20:29:00,
2013-03-29 16:34:00,51.1,37.3,30.18,SW,221,16.0,16.0,59,0.00,,---,0.00,VWS V14.01,2013-03-29 20:34:00,
2013-03-29 16:39:00,51.1,38.1,30.18,SW,230,12.0,16.0,61,0.00,,---,0.00,VWS V14.01,2013-03-29 20:39:00,
2013-03-29 16:44:00,51.1,36.8,30.18,SW,236,8.0,14.0,58,0.00,,---,0.00,VWS V14.01,2013-03-29 20:44:00,
2013-03-29 16:49:00,51.2,37.0,30.18,SW,229,12.0,14.0,58,0.00,,---,0.00,VWS V14.01,2013-03-29 20:49:00,
2013-03-29 16:54:00,51.3,36.6,30.18,WSW,238,9.0,13.0,57,0.00,,---,0.00,VWS V14.01,2013-03-29 20:54:00,
2013-03-29 16:59:00,51.4,37.1,30.18,WSW,240,15.0,15.0,58,0.00,,---,0.00,VWS V14.01,2013-03-29 20:59:00,
2013-03-29 17:04:00,51.4,38.8,30.18,SW,234,13.0,16.0,62,0.00,,---,0.00,VWS V14.01,2013-03-29 21:04:00,
2013-03-29 17:09:00,51.3,38.3,30.18,WSW,239,16.0,17.0,61,0.00,,---,0.00,VWS V14.01,2013-03-29 21:09:00,
2013-03-29 17:14:00,51.3,37.9,30.18,WSW,243,19.0,20.0,60,0.00,,---,0.00,VWS V14.01,2013-03-29 21:14:00,
2013-03-29 17:19:00,51.2,37.8,30.18,WSW,246,16.0,18.0,60,0.00,,---,0.00,VWS V14.01,2013-03-29 21:19:00,
2013-03-29 17:24:00,51.2,38.6,30.18,SW,236,16.0,16.0,62,0.00,,---,0.00,VWS V14.01,2013-03-29 21:24:00,
2013-03-29 17:29:00,51.1,39.0,30.18,WSW,243,15.0,18.0,63,0.00,,---,0.00,VWS V14.01,2013-03-29 21:29:00,
2013-03-29 17:34:00,51.2,39.5,30.18,WSW,240,12.0,13.0,64,0.00,,---,0.00,VWS V14.01,2013-03-29 21:34:00,
2013-03-29 17:39:00,51.1,38.1,30.18,WSW,242,15.0,18.0,61,0.00,,---,0.00,VWS V14.01,2013-03-29 21:39:00,
2013-03-29 17:44:00,51.0,37.2,30.18,WSW,242,15.0,18.0,59,0.00,,---,0.00,VWS V14.01,2013-03-29 21:44:00,
2013-03-29 17:49:00,51.0,38.0,30.18,WSW,238,15.0,18.0,61,0.00,,---,0.00,VWS V14.01,2013-03-29 21:49:00,
2013-03-29 17:54:00,51.1,39.0,30.19,WSW,242,13.0,17.0,63,0.00,,---,0.00,VWS V14.01,2013-03-29 21:54:00,
2013-03-29 17:59:00,51.0,37.6,30.18,WSW,237,14.0,18.0,60,0.00,,---,0.00,VWS V14.01,2013-03-29 21:59:00,
2013-03-29 18:04:00,51.1,39.0,30.19,WSW,242,14.0,20.0,63,0.00,,---,0.00,VWS V14.01,2013-03-29 22:04:00,
2013-03-29 18:09:00,51.2,39.0,30.18,WSW,242,17.0,23.0,63,0.00,,---,0.00,VWS V14.01,2013-03-29 22:09:00,
2013-03-29 18:14:00,51.2,39.8,30.18,WSW,242,14.0,16.0,65,0.00,,---,0.00,VWS V14.01,2013-03-29 22:14:00,
2013-03-29 18:19:00,51.1,39.0,30.19,WSW,240,13.0,15.0,63,0.00,,---,0.00,VWS V14.01,2013-03-29 22:19:00,
2013-03-29 18:24:00,51.1,38.5,30.19,WSW,243,16.0,19.0,62,0.00,,---,0.00,VWS V14.01,2013-03-29 22:24:00,
2013-03-29 18:29:00,51.1,38.5,30.19,WSW,244,14.0,17.0,62,0.00,,---,0.00,VWS V14.01,2013-03-29 22:29:00,
2013-03-29 18:34:00,51.3,40.0,30.19,WSW,240,13.0,16.0,65,0.00,,---,0.00,VWS V14.01,2013-03-29 22:34:00,
2013-03-29 18:39:00,51.3,39.2,30.19,WSW,247,17.0,21.0,63,0.00,,---,0.00,VWS V14.01,2013-03-29 22:39:00,
2013-03-29 18:44:00,51.4,40.0,30.19,WSW,250,14.0,18.0,65,0.00,,---,0.00,VWS V14.01,2013-03-29 22:44:00,
2013-03-29 18:49:00,51.3,39.2,30.19,WSW,244,16.0,19.0,63,0.00,,---,0.00,VWS V14.01,2013-03-29 22:49:00,
2013-03-29 18:54:00,51.4,39.7,30.19,WSW,248,20.0,20.0,64,0.00,,---,0.00,VWS V14.01,2013-03-29 22:54:00,
2013-03-29 18:59:00,51.4,39.2,30.19,WSW,247,18.0,21.0,63,0.00,,---,0.00,VWS V14.01,2013-03-29 22:59:00,
2013-03-29 19:04:00,51.4,39.7,30.19,WSW,251,19.0,21.0,64,0.00,,---,0.00,VWS V14.01,2013-03-29 23:04:00,
2013-03-29 19:09:00,51.6,41.0,30.20,WSW,254,18.0,18.0,67,0.00,,---,0.00,VWS V14.01,2013-03-29 23:09:00,
2013-03-29 19:14:00,51.6,41.0,30.19,WSW,249,17.0,17.0,67,0.00,,---,0.00,VWS V14.01,2013-03-29 23:14:00,
2013-03-29 19:19:00,51.6,40.2,30.19,WSW,255,19.0,23.0,65,0.00,,---,0.00,VWS V14.01,2013-03-29 23:19:00,
2013-03-29 19:24:00,51.6,39.8,30.19,WSW,246,19.0,22.0,64,0.00,,---,0.00,VWS V14.01,2013-03-29 23:24:00,
2013-03-29 19:29:00,51.7,39.9,30.19,WSW,250,18.0,23.0,64,0.00,,---,0.00,VWS V14.01,2013-03-29 23:29:00,
2013-03-29 19:34:00,51.7,39.9,30.19,WSW,242,19.0,24.0,64,0.00,,---,0.00,VWS V14.01,2013-03-29 23:34:00,
2013-03-29 19:39:00,51.7,39.9,30.20,WSW,248,19.0,21.0,64,0.00,,---,0.00,VWS V14.01,2013-03-29 23:39:00,
2013-03-29 19:44:00,51.8,39.6,30.19,WSW,245,18.0,20.0,63,0.00,,---,0.00,VWS V14.01,2013-03-29 23:44:00,
2013-03-29 19:49:00,51.8,39.6,30.20,WSW,242,17.0,20.0,63,0.00,,---,0.00,VWS V14.01,2013-03-29 23:49:00,
2013-03-29 19:54:00,51.8,40.4,30.20,WSW,254,21.0,24.0,65,0.00,,---,0.00,VWS V14.01,2013-03-29 23:54:00,
2013-03-29 19:59:00,51.8,40.0,30.20,WSW,245,21.0,22.0,64,0.00,,---,0.00,VWS V14.01,2013-03-29 23:59:00,
2013-03-29 20:04:00,51.8,40.4,30.20,WSW,254,16.0,20.0,65,0.00,,---,0.00,VWS V14.01,2013-03-30 00:04:00,
2013-03-29 20:09:00,51.8,40.4,30.20,WSW,255,17.0,22.0,65,0.00,,---,0.00,VWS V14.01,2013-03-30 00:09:00,
2013-03-29 20:14:00,51.8,41.2,30.20,WSW,255,19.0,21.0,67,0.00,,---,0.00,VWS V14.01,2013-03-30 00:14:00,
2013-03-29 20:19:00,51.8,41.6,30.20,WSW,256,20.0,21.0,68,0.00,,---,0.00,VWS V14.01,2013-03-30 00:19:00,
2013-03-29 20:24:00,51.8,41.2,30.20,WSW,251,19.0,20.0,67,0.00,,---,0.00,VWS V14.01,2013-03-30 00:24:00,
2013-03-29 20:29:00,51.9,42.1,30.20,WSW,248,13.0,17.0,69,0.00,,---,0.00,VWS V14.01,2013-03-30 00:29:00,
2013-03-29 20:34:00,51.8,40.8,30.20,WSW,240,17.0,23.0,66,0.00,,---,0.00,VWS V14.01,2013-03-30 00:34:00,
2013-03-29 20:39:00,51.9,41.7,30.20,WSW,248,19.0,19.0,68,0.00,,---,0.00,VWS V14.01,2013-03-30 00:39:00,
2013-03-29 20:44:00,51.9,41.7,30.20,WSW,242,13.0,21.0,68,0.00,,---,0.00,VWS V14.01,2013-03-30 00:44:00,
2013-03-29 20:49:00,51.9,42.1,30.21,WSW,248,18.0,21.0,69,0.00,,---,0.00,VWS V14.01,2013-03-30 00:49:00,
2013-03-29 20:54:00,52.0,42.2,30.21,WSW,252,18.0,19.0,69,0.00,,---,0.00,VWS V14.01,2013-03-30 00:54:00,
2013-03-29 20:59:00,52.0,42.2,30.21,WSW,250,13.0,18.0,69,0.00,,---,0.00,VWS V14.01,2013-03-30 00:59:00,
2013-03-29 21:04:00,52.0,42.2,30.21,WSW,242,13.0,18.0,69,0.00,,---,0.00,VWS V14.01,2013-03-30 01:04:00,
2013-03-29 21:09:00,52.0,42.2,30.21,WSW,244,13.0,19.0,69,0.00,,---,0.00,VWS V14.01,2013-03-30 01:09:00,
2013-03-29 21:14:00,52.0,42.2,30.21,WSW,243,15.0,16.0,69,0.00,,---,0.00,VWS V14.01,2013-03-30 01:14:00,
2013-03-29 21:19:00,52.0,42.5,30.21,WSW,252,17.0,18.0,70,0.00,,---,0.00,VWS V14.01,2013-03-30 01:19:00,
2013-03-29 21:24:00,52.2,43.5,30.21,WSW,244,13.0,15.0,72,0.00,,---,0.00,VWS V14.01,2013-03-30 01:24:00,
2013-03-29 21:29:00,52.2,43.5,30.22,WSW,244,13.0,16.0,72,0.00,,---,0.00,VWS V14.01,2013-03-30 01:29:00,
2013-03-29 21:34:00,52.1,42.6,30.22,WSW,241,13.0,15.0,70,0.00,,---,0.00,VWS V14.01,2013-03-30 01:34:00,
2013-03-29 21:39:00,52.2,43.1,30.22,WSW,238,15.0,17.0,71,0.00,,---,0.00,VWS V14.01,2013-03-30 01:39:00,
2013-03-29 21:44:00,52.2,43.5,30.22,WSW,252,19.0,19.0,72,0.00,,---,0.00,VWS V14.01,2013-03-30 01:44:00,
2013-03-29 21:49:00,52.2,43.8,30.22,WSW,246,13.0,14.0,73,0.00,,---,0.00,VWS V14.01,2013-03-30 01:49:00,
2013-03-29 21:54:00,52.2,43.5,30.22,WSW,240,13.0,15.0,72,0.00,,---,0.00,VWS V14.01,2013-03-30 01:54:00,
2013-03-29 21:59:00,52.3,43.9,30.22,WSW,248,12.0,16.0,73,0.00,,---,0.00,VWS V14.01,2013-03-30 01:59:00,
2013-03-29 22:04:00,52.3,43.5,30.22,WSW,240,12.0,16.0,72,0.00,,---,0.00,VWS V14.01,2013-03-30 02:04:00,
2013-03-29 22:09:00,52.4,43.7,30.22,WSW,251,15.0,18.0,72,0.00,,---,0.00,VWS V14.01,2013-03-30 02:09:00,
2013-03-29 22:14:00,52.4,43.7,30.22,WSW,250,15.0,18.0,72,0.00,,---,0.00,VWS V14.01,2013-03-30 02:14:00,
2013-03-29 22:19:00,52.5,44.1,30.22,WSW,242,16.0,16.0,73,0.00,,---,0.00,VWS V14.01,2013-03-30 02:19:00,
2013-03-29 22:24:00,52.5,44.1,30.22,WSW,240,11.0,15.0,73,0.00,,---,0.00,VWS V14.01,2013-03-30 02:24:00,
2013-03-29 22:29:00,52.5,44.1,30.22,WSW,247,14.0,16.0,73,0.00,,---,0.00,VWS V14.01,2013-03-30 02:29:00,
2013-03-29 22:34:00,52.5,44.1,30.22,WSW,248,15.0,17.0,73,0.00,,---,0.00,VWS V14.01,2013-03-30 02:34:00,
2013-03-29 22:39:00,52.6,44.2,30.22,WSW,249,13.0,17.0,73,0.00,,---,0.00,VWS V14.01,2013-03-30 02:39:00,
2013-03-29 22:44:00,52.6,44.6,30.22,WSW,243,14.0,15.0,74,0.00,,---,0.00,VWS V14.01,2013-03-30 02:44:00,
2013-03-29 22:49:00,52.5,44.5,30.22,WSW,245,15.0,15.0,74,0.00,,---,0.00,VWS V14.01,2013-03-30 02:49:00,
2013-03-29 22:54:00,52.5,44.5,30.22,WSW,245,12.0,16.0,74,0.00,,---,0.00,VWS V14.01,2013-03-30 02:54:00,
2013-03-29 22:59:00,52.5,44.5,30.22,WSW,246,13.0,16.0,74,0.00,,---,0.00,VWS V14.01,2013-03-30 02:59:00,
2013-03-29 23:04:00,52.5,44.8,30.22,WSW,250,14.0,16.0,75,0.00,,---,0.00,VWS V14.01,2013-03-30 03:04:00,
2013-03-29 23:09:00,52.6,44.6,30.22,WSW,242,13.0,16.0,74,0.00,,---,0.00,VWS V14.01,2013-03-30 03:09:00,
2013-03-29 23:14:00,52.5,44.5,30.22,WSW,246,12.0,16.0,74,0.00,,---,0.00,VWS V14.01,2013-03-30 03:14:00,
2013-03-29 23:19:00,52.5,44.5,30.22,WSW,250,14.0,15.0,74,0.00,,---,0.00,VWS V14.01,2013-03-30 03:19:00,
2013-03-29 23:24:00,52.5,44.5,30.23,WSW,248,13.0,15.0,74,0.00,,---,0.00,VWS V14.01,2013-03-30 03:24:00,
2013-03-29 23:29:00,52.6,44.6,30.23,WSW,253,9.0,14.0,74,0.00,,---,0.00,VWS V14.01,2013-03-30 03:29:00,
2013-03-29 23:34:00,52.6,44.9,30.22,WSW,256,12.0,15.0,75,0.00,,---,0.00,VWS V14.01,2013-03-30 03:34:00,
2013-03-29 23:39:00,52.5,44.5,30.22,WSW,247,13.0,14.0,74,0.00,,---,0.00,VWS V14.01,2013-03-30 03:39:00,
2013-03-29 23:44:00,52.6,44.6,30.22,WSW,250,12.0,14.0,74,0.00,,---,0.00,VWS V14.01,2013-03-30 03:44:00,
2013-03-29 23:49:00,52.6,44.6,30.22,WSW,252,11.0,14.0,74,0.00,,---,0.00,VWS V14.01,2013-03-30 03:49:00,
2013-03-29 23:54:00,52.6,44.6,30.22,WSW,252,11.0,13.0,74,0.00,,---,0.00,VWS V14.01,2013-03-30 03:54:00,
2013-03-29 23:59:00,52.5,44.8,30.22,WSW,252,10.0,12.0,75,0.00,,---,0.00,VWS V14.01,2013-03-30 03:59:00,